When you browse on this site, cookies collect data to enhance your experience and personalize the content and advertising you see.
Visit our Privacy Policy to learn more. By continuing to use the site, you agree to this use of cookies and data.
  • In Latvia
  • List of Countries
  • For 7 days
  • Water Temperature
  • Satellite Maps
  • Weather Map
  • Weather Widgets
  • user-avatar
    Login

    Hourly Weather Sevastopolskaya

    Today, 23 January, Wednesday

    Time Temperature Precipitation Wind Pressure Humidity
    00:00 0°C° 0 mm 0 mps 726 mmHg 90%
    01:00 0°C° 0 mm 0 mps 726 mmHg 89%
    02:00 0°C° 0 mm 0 mps 726 mmHg 87%
    03:00 -1°C° 0 mm 1 mps 725 mmHg 86%
    04:00 -1°C° 0 mm 1 mps 725 mmHg 85%
    05:00 -1°C° 0 mm 1 mps 725 mmHg 84%
    06:00 -1°C° 0 mm 1 mps 724 mmHg 83%
    07:00 0°C° 0 mm 1 mps 724 mmHg 81%
    08:00 0°C° 0 mm 1 mps 724 mmHg 79%
    09:00 +2°C° 0 mm 1 mps 724 mmHg 76%
    10:00 +3°C° 0 mm 1 mps 724 mmHg 74%
    11:00 +5°C° 0 mm 1 mps 724 mmHg 73%
    12:00 +7°C° 0 mm 1 mps 724 mmHg 72%
    13:00 +7°C° 0 mm 1 mps 724 mmHg 73%
    14:00 +7°C° 0 mm 1 mps 723 mmHg 75%
    15:00 +7°C° 0 mm 1 mps 723 mmHg 76%
    16:00 +6°C° 0 mm 1 mps 723 mmHg 79%
    17:00 +5°C° 0 mm 1 mps 723 mmHg 81%
    18:00 +3°C° 0 mm 1 mps 723 mmHg 84%
    19:00 +3°C° 0 mm 1 mps 723 mmHg 81%
    20:00 +2°C° 0 mm 2 mps 723 mmHg 79%
    21:00 +2°C° 0 mm 2 mps 722 mmHg 76%
    22:00 +2°C° 0 mm 2 mps 722 mmHg 75%
    23:00 +2°C° 0 mm 2 mps 722 mmHg 73%

    Tomorrow, 24 January, Thursday

    Time Temperature Precipitation Wind Pressure Humidity
    00:00 +2°C° 0 mm 2 mps 722 mmHg 72%
    01:00 +2°C° 0 mm 2 mps 722 mmHg 72%
    02:00 +2°C° 0 mm 2 mps 722 mmHg 72%
    03:00 +3°C° 0 mm 2 mps 722 mmHg 72%
    04:00 +3°C° 0 mm 2 mps 722 mmHg 72%
    05:00 +3°C° 0 mm 2 mps 722 mmHg 71%
    06:00 +3°C° 0 mm 2 mps 722 mmHg 71%
    07:00 +3°C° 0 mm 2 mps 722 mmHg 70%
    08:00 +4°C° 0 mm 2 mps 722 mmHg 70%
    09:00 +4°C° 0 mm 2 mps 722 mmHg 69%
    10:00 +7°C° 0 mm 2 mps 721 mmHg 69%
    11:00 +10°C° 0 mm 1 mps 721 mmHg 69%
    12:00 +12°C° 0 mm 1 mps 721 mmHg 69%
    13:00 +11°C° 0 mm 0 mps 721 mmHg 71%
    14:00 +11°C° 0 mm 0 mps 720 mmHg 72%
    15:00 +11°C° 0 mm 0 mps 720 mmHg 74%
    16:00 +10°C° 0 mm 0 mps 720 mmHg 75%
    17:00 +9°C° 0 mm 1 mps 720 mmHg 76%
    18:00 +7°C° 0 mm 1 mps 720 mmHg 77%
    19:00 +6°C° 0 mm 2 mps 720 mmHg 75%
    20:00 +6°C° 0 mm 2 mps 720 mmHg 72%
    21:00 +6°C° 0 mm 2 mps 719 mmHg 70%
    22:00 +5°C° 0 mm 2 mps 719 mmHg 68%
    23:00 +5°C° 0 mm 2 mps 719 mmHg 66%

    Day after tomorrow, 25 January, Friday

    Time Temperature Precipitation Wind Pressure Humidity
    00:00 +5°C° 0 mm 2 mps 719 mmHg 63%
    01:00 +5°C° 0 mm 2 mps 719 mmHg 63%
    02:00 +5°C° 0 mm 2 mps 719 mmHg 62%
    03:00 +5°C° 0 mm 2 mps 720 mmHg 62%
    04:00 +5°C° 0 mm 2 mps 720 mmHg 62%
    05:00 +5°C° 0 mm 2 mps 719 mmHg 63%
    06:00 +5°C° 0 mm 2 mps 719 mmHg 63%
    07:00 +5°C° 0 mm 2 mps 720 mmHg 64%
    08:00 +6°C° 0 mm 2 mps 720 mmHg 64%
    09:00 +6°C° 0 mm 2 mps 721 mmHg 65%
    10:00 +9°C° 0 mm 1 mps 721 mmHg 64%
    11:00 +10°C° 0 mm 1 mps 721 mmHg 63%
    12:00 +11°C° 0 mm 0 mps 721 mmHg 62%
    13:00 +11°C° 0 mm 0 mps 721 mmHg 64%
    14:00 +11°C° 0 mm 0 mps 721 mmHg 65%
    15:00 +11°C° 0 mm 0 mps 721 mmHg 67%
    16:00 +9°C° 0 mm 0 mps 721 mmHg 69%
    17:00 +8°C° 0 mm 0 mps 721 mmHg 72%
    18:00 +8°C° 0 mm 1 mps 721 mmHg 74%
    19:00 +7°C° 0 mm 1 mps 721 mmHg 75%
    20:00 +7°C° 0 mm 1 mps 721 mmHg 75%
    21:00 +7°C° 0 mm 1 mps 721 mmHg 75%
    22:00 +6°C° 0 mm 1 mps 721 mmHg 75%
    23:00 +5°C° 0 mm 2 mps 721 mmHg 74%

    26 January, Saturday

    Time Temperature Precipitation Wind Pressure Humidity
    00:00 +5°C° 0 mm 2 mps 721 mmHg 74%
    01:00 +5°C° 0 mm 2 mps 721 mmHg 73%
    02:00 +5°C° 0 mm 2 mps 720 mmHg 72%
    03:00 +5°C° 0 mm 2 mps 720 mmHg 72%
    04:00 +5°C° 0 mm 2 mps 720 mmHg 71%
    05:00 +5°C° 0 mm 2 mps 720 mmHg 70%
    06:00 +5°C° 0 mm 2 mps 719 mmHg 70%
    07:00 +6°C° 0 mm 2 mps 719 mmHg 70%
    08:00 +6°C° 0 mm 2 mps 720 mmHg 70%
    09:00 +6°C° 0 mm 2 mps 720 mmHg 70%
    10:00 +8°C° 0.1 mm 1 mps 720 mmHg 70%
    11:00 +9°C° 0.1 mm 1 mps 720 mmHg 70%
    12:00 +10°C° 0.1 mm 1 mps 720 mmHg 70%
    13:00 +10°C° 0.1 mm 1 mps 719 mmHg 73%
    14:00 +10°C° 0.1 mm 1 mps 719 mmHg 75%
    15:00 +9°C° 0.1 mm 0 mps 719 mmHg 78%
    16:00 +8°C° 0.1 mm 0 mps 719 mmHg 80%
    17:00 +7°C° 0.1 mm 0 mps 718 mmHg 83%
    18:00 +7°C° 0.1 mm 1 mps 718 mmHg 85%
    19:00 +7°C° 0.1 mm 1 mps 718 mmHg 84%
    20:00 +7°C° 0.1 mm 1 mps 718 mmHg 82%
    21:00 +7°C° 0.1 mm 1 mps 718 mmHg 81%
    22:00 +7°C° 0 mm 1 mps 718 mmHg 80%
    23:00 +7°C° 0 mm 1 mps 718 mmHg 79%

    27 January, Sunday

    Time Temperature Precipitation Wind Pressure Humidity
    00:00 +6°C° 0 mm 1 mps 718 mmHg 77%
    01:00 +7°C° 0 mm 1 mps 718 mmHg 77%
    02:00 +7°C° 0 mm 1 mps 718 mmHg 76%
    03:00 +7°C° 0 mm 1 mps 717 mmHg 75%
    04:00 +7°C° 0.2 mm 1 mps 717 mmHg 76%
    05:00 +7°C° 0.2 mm 1 mps 717 mmHg 78%
    06:00 +7°C° 0.2 mm 1 mps 717 mmHg 79%
    07:00 +7°C° 0.3 mm 1 mps 717 mmHg 80%
    08:00 +7°C° 0.3 mm 1 mps 717 mmHg 80%
    09:00 +7°C° 0.3 mm 1 mps 717 mmHg 80%
    10:00 +8°C° 0.2 mm 1 mps 717 mmHg 78%
    11:00 +10°C° 0.2 mm 1 mps 717 mmHg 76%
    12:00 +11°C° 0.2 mm 1 mps 717 mmHg 73%
    13:00 +10°C° 0.4 mm 1 mps 717 mmHg 75%
    14:00 +10°C° 0.4 mm 1 mps 717 mmHg 76%
    15:00 +10°C° 0.4 mm 1 mps 717 mmHg 78%
    16:00 +10°C° 0.3 mm 1 mps 717 mmHg 80%
    17:00 +9°C° 0.3 mm 1 mps 717 mmHg 82%
    18:00 +9°C° 0.3 mm 1 mps 717 mmHg 84%
    19:00 +8°C° 0.1 mm 1 mps 718 mmHg 83%
    20:00 +8°C° 0.1 mm 1 mps 718 mmHg 83%
    21:00 +8°C° 0.1 mm 1 mps 718 mmHg 82%
    22:00 +8°C° 0 mm 1 mps 718 mmHg 81%
    23:00 +7°C° 0 mm 1 mps 718 mmHg 80%

    28 January, Monday

    Time Temperature Precipitation Wind Pressure Humidity
    00:00 +7°C° 0 mm 1 mps 718 mmHg 79%
    01:00 +7°C° 0 mm 1 mps 718 mmHg 78%
    02:00 +7°C° 0 mm 1 mps 719 mmHg 77%
    03:00 +7°C° 0 mm 1 mps 719 mmHg 77%
    04:00 +7°C° 0.1 mm 1 mps 719 mmHg 77%
    05:00 +7°C° 0.1 mm 1 mps 719 mmHg 77%
    06:00 +7°C° 0.1 mm 1 mps 719 mmHg 77%
    07:00 +8°C° 0.1 mm 1 mps 719 mmHg 77%
    08:00 +8°C° 0.1 mm 1 mps 719 mmHg 77%
    09:00 +8°C° 0.1 mm 1 mps 719 mmHg 77%
    10:00 +9°C° 0 mm 1 mps 719 mmHg 72%
    11:00 +11°C° 0 mm 1 mps 719 mmHg 67%
    12:00 +11°C° 0 mm 0 mps 719 mmHg 62%
    13:00 +12°C° 0 mm 1 mps 719 mmHg 64%
    14:00 +12°C° 0 mm 1 mps 719 mmHg 65%
    15:00 +11°C° 0 mm 1 mps 719 mmHg 67%
    16:00 +10°C° 0 mm 1 mps 720 mmHg 71%
    17:00 +9°C° 0 mm 1 mps 720 mmHg 76%
    18:00 +7°C° 0 mm 0 mps 721 mmHg 80%
    19:00 +7°C° 0 mm 0 mps 721 mmHg 80%
    20:00 +8°C° 0 mm 1 mps 722 mmHg 81%
    21:00 +7°C° 0 mm 1 mps 723 mmHg 81%
    22:00 +7°C° 0 mm 1 mps 723 mmHg 81%
    23:00 +7°C° 0 mm 1 mps 724 mmHg 81%
    Show more